,,,PA_Meas_PMT16A,,PR_Meas_QMR101_102,,RH_Meas_QMH101,,SR_Meas_QMS101,,TA_Meas_QMH101,,GenWind,,GenWind,
date,time,status,PA,status,PR,status,RH,status,SR,status,TA,status,DirAvg,status,SpdAvg,
2011-11-26, 00:00:05,VALID,1002.83,VALID,0,VALID,92.3934,VALID,0,VALID,25.0644,VALID,349,VALID,0.212109,
2011-11-26, 00:01:05,VALID,1002.82,VALID,0,VALID,92.4239,VALID,0,VALID,25.0839,VALID,349,VALID,0.147656,
2011-11-26, 00:02:05,VALID,1002.79,VALID,0,VALID,92.2255,VALID,0,VALID,25.045,VALID,349,VALID,0.163672,
2011-11-26, 00:03:05,VALID,1002.73,VALID,0,VALID,92.3018,VALID,0,VALID,25.045,VALID,349,VALID,0.103125,
2011-11-26, 00:04:05,VALID,1002.71,VALID,0,VALID,92.2713,VALID,0,VALID,25.0255,VALID,349,VALID,0.0078125,
2011-11-26, 00:05:05,VALID,1002.7,VALID,0,VALID,92.2408,VALID,0,VALID,25.0274,VALID,349,VALID,0,
2011-11-26, 00:06:05,VALID,1002.68,VALID,0,VALID,92.3705,VALID,0,VALID,25.0274,VALID,349,VALID,0,
2011-11-26, 00:07:05,VALID,1002.64,VALID,0,VALID,92.4544,VALID,0,VALID,25.006,VALID,349,VALID,0,
2011-11-26, 00:08:05,VALID,1002.65,VALID,0,VALID,92.4086,VALID,0,VALID,25.0469,VALID,349,VALID,0.116406,
2011-11-26, 00:09:05,VALID,1002.63,VALID,0,VALID,92.3552,VALID,0,VALID,25.0469,VALID,349,VALID,0.20625,
2011-11-26, 00:10:05,VALID,1002.63,VALID,0,VALID,92.3095,VALID,0,VALID,25.006,VALID,349,VALID,0.361328,
2011-11-26, 00:11:05,VALID,1002.63,VALID,0,VALID,92.34,VALID,0,VALID,24.9866,VALID,349,VALID,0.358984,
2011-11-26, 00:12:05,VALID,1002.6,VALID,0,VALID,92.5078,VALID,0,VALID,25.0274,VALID,349,VALID,0.267969,
2011-11-26, 00:13:05,VALID,1002.63,VALID,0,VALID,92.5536,VALID,0,VALID,25.006,VALID,349,VALID,0.35,
2011-11-26, 00:14:05,VALID,1002.62,VALID,0,VALID,92.6222,VALID,0,VALID,25.0469,VALID,349,VALID,0.324609,
2011-11-26, 00:15:05,VALID,1002.65,VALID,0,VALID,92.5231,VALID,0,VALID,25.006,VALID,349,VALID,0.332422,
2011-11-26, 00:16:05,VALID,1002.67,VALID,0,VALID,92.5231,VALID,0,VALID,25.0079,VALID,349,VALID,0.226953,
2011-11-26, 00:17:05,VALID,1002.64,VALID,0,VALID,92.5307,VALID,0,VALID,25.0274,VALID,349,VALID,0,
2011-11-26, 00:18:05,VALID,1002.69,VALID,0,VALID,92.5536,VALID,0,VALID,25.0274,VALID,349,VALID,0,
2011-11-26, 00:19:05,VALID,1002.71,VALID,0,VALID,92.5993,VALID,0,VALID,25.0079,VALID,349,VALID,0.0875,
2011-11-26, 00:20:05,VALID,1002.72,VALID,0,VALID,92.668,VALID,0,VALID,24.9671,VALID,349,VALID,0.00273437,
2011-11-26, 00:21:05,VALID,1002.72,VALID,0,VALID,92.7214,VALID,0,VALID,24.9885,VALID,349,VALID,0.204297,
2011-11-26, 00:22:05,VALID,1002.76,VALID,0,VALID,92.8587,VALID,0,VALID,24.9866,VALID,349,VALID,0.398828,
2011-11-26, 00:23:05,VALID,1002.74,VALID,0,VALID,92.8358,VALID,0,VALID,25.0079,VALID,48,VALID,0.503906,
2011-11-26, 00:24:05,VALID,1002.76,VALID,0,VALID,92.8511,VALID,0,VALID,24.9671,VALID,48,VALID,0.360547,
2011-11-26, 00:25:05,VALID,1002.75,VALID,0,VALID,92.8358,VALID,0,VALID,24.9671,VALID,48,VALID,0.196484,
2011-11-26, 00:26:05,VALID,1002.71,VALID,0,VALID,92.9121,VALID,0,VALID,25.0079,VALID,48,VALID,0,
2011-11-26, 00:27:05,VALID,1002.73,VALID,0,VALID,92.9426,VALID,0,VALID,25.0079,VALID,48,VALID,0,
2011-11-26, 00:28:05,VALID,1002.73,VALID,0,VALID,92.9579,VALID,0,VALID,24.9866,VALID,48,VALID,0,
2011-11-26, 00:29:05,VALID,1002.7,VALID,0,VALID,93.0418,VALID,0,VALID,25.0079,VALID,48,VALID,0,
2011-11-26, 00:30:05,VALID,1002.69,VALID,0,VALID,93.0037,VALID,0,VALID,25.0079,VALID,48,VALID,0,
2011-11-26, 00:31:05,VALID,1002.7,VALID,0,VALID,93.0647,VALID,0,VALID,25.0079,VALID,48,VALID,0,
2011-11-26, 00:32:05,VALID,1002.7,VALID,0,VALID,93.0647,VALID,0,VALID,25.006,VALID,48,VALID,0,
2011-11-26, 00:33:05,VALID,1002.71,VALID,0,VALID,92.9732,VALID,0,VALID,25.0274,VALID,48,VALID,0,
2011-11-26, 00:34:05,VALID,1002.77,VALID,0,VALID,92.9808,VALID,0,VALID,25.0255,VALID,48,VALID,0,
2011-11-26, 00:35:05,VALID,1002.76,VALID,0,VALID,92.9961,VALID,0,VALID,25.0255,VALID,48,VALID,0,
2011-11-26, 00:36:05,VALID,1002.83,VALID,0,VALID,93.0571,VALID,0,VALID,25.0663,VALID,48,VALID,0,
2011-11-26, 00:37:05,VALID,1002.85,VALID,0,VALID,92.8816,VALID,0,VALID,25.0255,VALID,48,VALID,0.154297,
2011-11-26, 00:38:05,VALID,1002.88,VALID,0,VALID,92.8969,VALID,0,VALID,25.045,VALID,48,VALID,0.00703125,
2011-11-26, 00:39:05,VALID,1002.91,VALID,0,VALID,92.9045,VALID,0,VALID,25.0858,VALID,48,VALID,0.0429688,
2011-11-26, 00:40:05,VALID,1002.93,VALID,0,VALID,92.9198,VALID,0,VALID,25.045,VALID,48,VALID,0.0410156,
2011-11-26, 00:41:05,VALID,1002.93,VALID,0,VALID,92.9274,VALID,0,VALID,25.0644,VALID,48,VALID,0.156641,
2011-11-26, 00:42:05,VALID,1002.95,VALID,0,VALID,92.9426,VALID,0,VALID,25.0839,VALID,48,VALID,0.237891,
2011-11-26, 00:43:05,VALID,1002.95,VALID,0,VALID,92.8892,VALID,0,VALID,25.0839,VALID,48,VALID,0.156641,
2011-11-26, 00:44:05,VALID,1002.95,VALID,0,VALID,92.9503,VALID,0,VALID,25.1053,VALID,48,VALID,0.369922,
2011-11-26, 00:45:05,VALID,1002.93,VALID,0,VALID,93.0189,VALID,0,VALID,25.1053,VALID,48,VALID,0,
2011-11-26, 00:46:05,VALID,1002.92,VALID,0,VALID,92.935,VALID,0,VALID,25.1053,VALID,48,VALID,0,
2011-11-26, 00:47:05,VALID,1002.89,VALID,0,VALID,92.9655,VALID,0,VALID,25.1053,VALID,48,VALID,0,
2011-11-26, 00:48:05,VALID,1002.87,VALID,0,VALID,92.9732,VALID,0,VALID,25.0839,VALID,48,VALID,0,
2011-11-26, 00:49:05,VALID,1002.8,VALID,0,VALID,92.8816,VALID,0,VALID,25.0839,VALID,48,VALID,0,
2011-11-26, 00:50:05,VALID,1002.8,VALID,0,VALID,92.8892,VALID,0,VALID,25.0858,VALID,48,VALID,0,
2011-11-26, 00:51:05,VALID,1002.78,VALID,0,VALID,92.9198,VALID,0,VALID,25.0839,VALID,48,VALID,0,
2011-11-26, 00:52:05,VALID,1002.7,VALID,0,VALID,92.9961,VALID,0,VALID,25.0839,VALID,48,VALID,0.0960938,
2011-11-26, 00:53:05,VALID,1002.72,VALID,0,VALID,92.9045,VALID,0,VALID,25.1034,VALID,48,VALID,0.286328,
2011-11-26, 00:54:05,VALID,1002.73,VALID,0,VALID,92.9732,VALID,0,VALID,25.1034,VALID,48,VALID,0.15625,
2011-11-26, 00:55:05,VALID,1002.7,VALID,0,VALID,92.9884,VALID,0,VALID,25.1229,VALID,48,VALID,0.2625,
2011-11-26, 00:56:05,VALID,1002.74,VALID,0,VALID,92.7824,VALID,0,VALID,25.1248,VALID,48,VALID,0.371094,
2011-11-26, 00:57:05,VALID,1002.77,VALID,0,VALID,92.7824,VALID,0,VALID,25.1229,VALID,48,VALID,0.270703,
2011-11-26, 00:58:05,VALID,1002.8,VALID,0,VALID,92.7214,VALID,0,VALID,25.1442,VALID,48,VALID,0.322656,
2011-11-26, 00:59:05,VALID,1002.86,VALID,0,VALID,92.6985,VALID,0,VALID,25.1637,VALID,61,VALID,0.658594,
2011-11-26, 01:00:05,VALID,1002.89,VALID,0,VALID,92.5993,VALID,0,VALID,25.1423,VALID,67,VALID,0.638281,
2011-11-26, 01:01:05,VALID,1002.89,VALID,0,VALID,92.5993,VALID,0,VALID,25.1423,VALID,82,VALID,0.754297,
2011-11-26, 01:02:05,VALID,1002.9,VALID,0,VALID,92.4315,VALID,0,VALID,25.1832,VALID,84,VALID,0.7875,
2011-11-26, 01:03:05,VALID,1002.94,VALID,0,VALID,92.4086,VALID,0,VALID,25.1618,VALID,90,VALID,0.6,
2011-11-26, 01:04:05,VALID,1002.92,VALID,0,VALID,92.3857,VALID,0,VALID,25.1813,VALID,90,VALID,0.500781,
2011-11-26, 01:05:05,VALID,1002.95,VALID,0,VALID,92.3705,VALID,0,VALID,25.2007,VALID,90,VALID,0.459766,
2011-11-26, 01:06:05,VALID,1002.91,VALID,0,VALID,92.1721,VALID,0,VALID,25.2027,VALID,90,VALID,0.658594,
2011-11-26, 01:07:05,VALID,1002.92,VALID,0,VALID,92.0272,VALID,0,VALID,25.2007,VALID,84,VALID,0.430469,
2011-11-26, 01:08:05,VALID,1002.94,VALID,0,VALID,92.0196,VALID,0,VALID,25.2202,VALID,84,VALID,0.502344,
2011-11-26, 01:09:05,VALID,1002.94,VALID,0,VALID,91.8975,VALID,0,VALID,25.2397,VALID,84,VALID,0.417578,
2011-11-26, 01:10:05,VALID,1002.93,VALID,0,VALID,91.6381,VALID,0,VALID,25.2806,VALID,90,VALID,0.641406,
2011-11-26, 01:11:05,VALID,1002.95,VALID,0,VALID,91.4474,VALID,0,VALID,25.3,VALID,97,VALID,0.753125,
2011-11-26, 01:12:05,VALID,1002.95,VALID,0,VALID,91.1575,VALID,0,VALID,25.3584,VALID,90,VALID,0.789453,
2011-11-26, 01:13:05,VALID,1002.98,VALID,0,VALID,90.8142,VALID,0,VALID,25.3974,VALID,82,VALID,0.54375,
2011-11-26, 01:14:05,VALID,1002.99,VALID,0,VALID,90.3565,VALID,0,VALID,25.4149,VALID,119,VALID,0.875,
2011-11-26, 01:15:05,VALID,1002.98,VALID,0,VALID,90.1047,VALID,0,VALID,25.4948,VALID,109,VALID,0.849219,
2011-11-26, 01:16:05,VALID,1002.98,VALID,0,VALID,89.7843,VALID,0,VALID,25.5123,VALID,94,VALID,0.476953,
2011-11-26, 01:17:05,VALID,1002.97,VALID,0,VALID,89.7538,VALID,0,VALID,25.5318,VALID,103,VALID,0.657422,
2011-11-26, 01:18:05,VALID,1003,VALID,0,VALID,89.7538,VALID,0,VALID,25.5513,VALID,111,VALID,0.808594,
2011-11-26, 01:19:05,VALID,1003.01,VALID,0,VALID,89.3113,VALID,0,VALID,25.5921,VALID,102,VALID,1.09414,
2011-11-26, 01:20:05,VALID,1003.06,VALID,0,VALID,88.8231,VALID,0,VALID,25.6506,VALID,111,VALID,0.789063,
2011-11-26, 01:21:05,VALID,1003.16,VALID,0,VALID,88.9451,VALID,0,VALID,25.6895,VALID,113,VALID,1.05586,
2011-11-26, 01:22:05,VALID,1003.16,VALID,0,VALID,87.9381,VALID,0,VALID,25.748,VALID,164,VALID,2.2207,
2011-11-26, 01:23:05,VALID,1003.2,VALID,0,VALID,86.5496,VALID,0,VALID,25.7655,VALID,108,VALID,3.43398,
2011-11-26, 01:24:05,VALID,1003.26,VALID,0,VALID,86.0843,VALID,0,VALID,25.746,VALID,143,VALID,2.50469,
2011-11-26, 01:25:05,VALID,1003.3,VALID,0,VALID,85.5198,VALID,0,VALID,25.6467,VALID,138,VALID,3.69648,
2011-11-26, 01:26:05,VALID,1003.27,VALID,0,VALID,85.9622,VALID,0.0815089,VALID,25.5513,VALID,126,VALID,3.67891,
2011-11-26, 01:27:05,VALID,1003.3,VALID,0,VALID,86.3513,VALID,0,VALID,25.4753,VALID,126,VALID,2.97852,
2011-11-26, 01:28:05,VALID,1003.28,VALID,0,VALID,86.3666,VALID,0,VALID,25.3974,VALID,114,VALID,3.03437,
2011-11-26, 01:29:05,VALID,1003.31,VALID,0,VALID,86.2674,VALID,0,VALID,25.3,VALID,123,VALID,3.31484,
2011-11-26, 01:30:05,VALID,1003.38,VALID,0,VALID,86.3894,VALID,0,VALID,25.2221,VALID,109,VALID,3.55,
2011-11-26, 01:31:05,VALID,1003.37,VALID,0,VALID,85.2833,VALID,0,VALID,25.0663,VALID,96,VALID,2.49453,
2011-11-26, 01:32:05,VALID,1003.37,VALID,0,VALID,85.2604,VALID,0,VALID,24.93,VALID,107,VALID,3.42461,
2011-11-26, 01:33:05,VALID,1003.42,VALID,0,VALID,86.2292,VALID,0,VALID,24.7353,VALID,111,VALID,3.06953,
2011-11-26, 01:34:05,VALID,1003.34,VALID,0,VALID,87.3202,VALID,0,VALID,24.5601,VALID,93,VALID,1.48984,
2011-11-26, 01:35:05,VALID,1003.35,VALID,0,VALID,88.2585,VALID,0,VALID,24.4043,VALID,95,VALID,1.62734,
2011-11-26, 01:36:05,VALID,1003.35,VALID,0,VALID,88.762,VALID,0,VALID,24.2857,VALID,105,VALID,3.20742,
2011-11-26, 01:37:05,VALID,1003.37,VALID,0,VALID,89.8987,VALID,0,VALID,24.2078,VALID,126,VALID,3.63438,
2011-11-26, 01:38:04,VALID,1003.4,VALID,0,VALID,90.4556,VALID,0,VALID,24.1707,VALID,117,VALID,3.70352,
2011-11-26, 01:39:04,VALID,1003.34,VALID,0,VALID,90.4633,VALID,0,VALID,24.091,VALID,95,VALID,2.9875,
2011-11-26, 01:40:04,VALID,1003.32,VALID,0,VALID,90.6616,VALID,0,VALID,24.0326,VALID,84,VALID,2.47813,
2011-11-26, 01:41:04,VALID,1003.35,VALID,0,VALID,90.5396,VALID,0,VALID,24.0132,VALID,115,VALID,2.58594,
2011-11-26, 01:42:04,VALID,1003.35,VALID,0,VALID,90.5853,VALID,0,VALID,23.9761,VALID,120,VALID,1.21445,
2011-11-26, 01:43:04,VALID,1003.31,VALID,0.5,VALID,91.1346,VALID,0,VALID,23.9177,VALID,142,VALID,1.74766,
2011-11-26, 01:44:04,VALID,1003.26,VALID,0,VALID,90.6845,VALID,0,VALID,23.8185,VALID,141,VALID,3.11328,
2011-11-26, 01:45:04,VALID,1003.27,VALID,0.5,VALID,91.2338,VALID,0,VALID,23.7601,VALID,100,VALID,3.07148,
2011-11-26, 01:46:04,VALID,1003.19,VALID,0,VALID,91.6152,VALID,0,VALID,23.6628,VALID,133,VALID,3.87227,
2011-11-26, 01:47:04,VALID,1003.22,VALID,0.5,VALID,92.3934,VALID,0,VALID,23.6239,VALID,91,VALID,1.86484,
2011-11-26, 01:48:04,VALID,1003.18,VALID,0,VALID,92.813,VALID,0,VALID,23.6275,VALID,109,VALID,3.19414,
2011-11-26, 01:49:04,VALID,1003.19,VALID,0.5,VALID,93.1334,VALID,0,VALID,23.6257,VALID,114,VALID,3.43047,
2011-11-26, 01:50:04,VALID,1003.17,VALID,0.5,VALID,93.202,VALID,0,VALID,23.546,VALID,121,VALID,3.51406,
2011-11-26, 01:51:04,VALID,1003.18,VALID,0,VALID,93.3241,VALID,0,VALID,23.5071,VALID,93,VALID,3.75859,
2011-11-26, 01:52:04,VALID,1003.19,VALID,0.5,VALID,93.347,VALID,0,VALID,23.4682,VALID,102,VALID,3.73281,
2011-11-26, 01:53:04,VALID,1003.26,VALID,0.5,VALID,93.1791,VALID,0,VALID,23.4293,VALID,120,VALID,4.14453,
2011-11-26, 01:54:04,VALID,1003.26,VALID,0.5,VALID,93.3241,VALID,0,VALID,23.3514,VALID,101,VALID,3.42344,
2011-11-26, 01:55:04,VALID,1003.27,VALID,0,VALID,93.202,VALID,0,VALID,23.2736,VALID,100,VALID,3.27148,
2011-11-26, 01:56:04,VALID,1003.28,VALID,0.5,VALID,93.3394,VALID,0,VALID,23.1957,VALID,121,VALID,2.57656,
2011-11-26, 01:57:04,VALID,1003.31,VALID,0.5,VALID,93.5911,VALID,0,VALID,23.1374,VALID,108,VALID,1.99063,
2011-11-26, 01:58:04,VALID,1003.26,VALID,0.5,VALID,93.8505,VALID,0,VALID,23.0755,VALID,129,VALID,2.61562,
2011-11-26, 01:59:04,VALID,1003.27,VALID,0.5,VALID,94.1022,VALID,0,VALID,23.079,VALID,108,VALID,1.28242,
2011-11-26, 02:00:04,VALID,1003.28,VALID,0,VALID,94.0717,VALID,0,VALID,23.0401,VALID,116,VALID,2.61797,
2011-11-26, 02:01:04,VALID,1003.23,VALID,0.5,VALID,94.2853,VALID,0,VALID,23.0401,VALID,94,VALID,0.822656,
2011-11-26, 02:02:04,VALID,1003.24,VALID,0.5,VALID,94.3616,VALID,0,VALID,23.0418,VALID,121,VALID,2.26719,
2011-11-26, 02:03:04,VALID,1003.25,VALID,0,VALID,94.4608,VALID,0,VALID,23.0206,VALID,116,VALID,1.06953,
2011-11-26, 02:04:04,VALID,1003.28,VALID,0.5,VALID,94.5447,VALID,0,VALID,23.0206,VALID,113,VALID,1.0793,
2011-11-26, 02:05:04,VALID,1003.29,VALID,0,VALID,94.621,VALID,0,VALID,23.0206,VALID,107,VALID,1.21211,
2011-11-26, 02:06:04,VALID,1003.29,VALID,0,VALID,94.6591,VALID,0,VALID,22.9817,VALID,101,VALID,1.51172,
2011-11-26, 02:07:04,VALID,1003.29,VALID,0,VALID,94.7507,VALID,0,VALID,22.9817,VALID,93,VALID,1.56172,
2011-11-26, 02:08:04,VALID,1003.28,VALID,0,VALID,94.8804,VALID,0,VALID,22.98,VALID,90,VALID,1.12148,
2011-11-26, 02:09:04,VALID,1003.25,VALID,0.5,VALID,94.9948,VALID,0,VALID,23.0012,VALID,55,VALID,0.558203,
2011-11-26, 02:10:04,VALID,1003.22,VALID,0,VALID,95.1321,VALID,0,VALID,23.0595,VALID,112,VALID,1.2168,
2011-11-26, 02:11:04,VALID,1003.22,VALID,0,VALID,95.2771,VALID,0,VALID,23.0984,VALID,80,VALID,0.879297,
2011-11-26, 02:12:04,VALID,1003.22,VALID,0,VALID,95.3305,VALID,0,VALID,23.1179,VALID,97,VALID,0.794531,
2011-11-26, 02:13:04,VALID,1003.25,VALID,0,VALID,95.3305,VALID,0,VALID,23.1162,VALID,111,VALID,0.976172,
2011-11-26, 02:14:04,VALID,1003.26,VALID,0,VALID,95.3305,VALID,0,VALID,23.1162,VALID,101,VALID,1.19805,
2011-11-26, 02:15:04,VALID,1003.26,VALID,0,VALID,95.3305,VALID,0,VALID,23.1374,VALID,99,VALID,0.926562,
2011-11-26, 02:16:04,VALID,1003.26,VALID,0,VALID,95.3076,VALID,0,VALID,23.1374,VALID,70,VALID,0.832031,
2011-11-26, 02:17:04,VALID,1003.2,VALID,0,VALID,95.3152,VALID,0,VALID,23.1179,VALID,71,VALID,0.891406,
2011-11-26, 02:18:04,VALID,1003.2,VALID,0,VALID,95.2542,VALID,0,VALID,23.079,VALID,81,VALID,0.580469,
2011-11-26, 02:19:04,VALID,1003.19,VALID,0,VALID,95.2313,VALID,0,VALID,23.0595,VALID,72,VALID,0.727734,
2011-11-26, 02:20:04,VALID,1003.22,VALID,0,VALID,95.2313,VALID,0,VALID,23.0401,VALID,88,VALID,0.490234,
2011-11-26, 02:21:04,VALID,1003.18,VALID,0,VALID,95.2695,VALID,0,VALID,23.0401,VALID,80,VALID,0.867578,
2011-11-26, 02:22:04,VALID,1003.18,VALID,0,VALID,95.2771,VALID,0,VALID,23.0189,VALID,68,VALID,0.312891,
2011-11-26, 02:23:04,VALID,1003.16,VALID,0,VALID,95.2771,VALID,0.0815089,VALID,23.0206,VALID,64,VALID,0.389062,
2011-11-26, 02:24:04,VALID,1003.17,VALID,0,VALID,95.3,VALID,0,VALID,23.0012,VALID,49,VALID,0.238672,
2011-11-26, 02:25:04,VALID,1003.13,VALID,0,VALID,95.3381,VALID,0,VALID,23.0012,VALID,48,VALID,0.527344,
2011-11-26, 02:26:04,VALID,1003.15,VALID,0,VALID,95.4373,VALID,0.0815089,VALID,23.0189,VALID,43,VALID,0.721094,
2011-11-26, 02:27:04,VALID,1003.15,VALID,0,VALID,95.4678,VALID,0.0815089,VALID,23.0189,VALID,38,VALID,0.271875,
2011-11-26, 02:28:04,VALID,1003.16,VALID,0,VALID,95.4754,VALID,0.0815089,VALID,23.0189,VALID,38,VALID,0.00820312,
2011-11-26, 02:29:04,VALID,1003.16,VALID,0,VALID,95.5212,VALID,0,VALID,23.0189,VALID,49,VALID,0.339063,
2011-11-26, 02:30:04,VALID,1003.23,VALID,0,VALID,95.5746,VALID,0,VALID,23.079,VALID,94,VALID,0.435547,
2011-11-26, 02:31:04,VALID,1003.23,VALID,0,VALID,95.5899,VALID,0,VALID,23.0595,VALID,90,VALID,0.492969,
2011-11-26, 02:32:04,VALID,1003.26,VALID,0,VALID,95.5899,VALID,0,VALID,23.1002,VALID,81,VALID,0.759766,
2011-11-26, 02:33:04,VALID,1003.27,VALID,0,VALID,95.6204,VALID,0,VALID,23.1002,VALID,64,VALID,1.36289,
2011-11-26, 02:34:04,VALID,1003.24,VALID,0,VALID,95.5899,VALID,0,VALID,23.1391,VALID,92,VALID,1.10195,
2011-11-26, 02:35:04,VALID,1003.24,VALID,0,VALID,95.6128,VALID,0,VALID,23.1374,VALID,73,VALID,1.26992,
2011-11-26, 02:36:04,VALID,1003.22,VALID,0.5,VALID,95.6204,VALID,0,VALID,23.1374,VALID,78,VALID,1.06445,
2011-11-26, 02:37:04,VALID,1003.22,VALID,0,VALID,95.5899,VALID,0,VALID,23.1374,VALID,96,VALID,1.20859,
2011-11-26, 02:38:04,VALID,1003.25,VALID,0,VALID,95.628,VALID,0,VALID,23.1975,VALID,102,VALID,1.21484,
2011-11-26, 02:39:04,VALID,1003.2,VALID,0,VALID,95.5746,VALID,0,VALID,23.1993,VALID,101,VALID,0.947266,
2011-11-26, 02:40:04,VALID,1003.17,VALID,0,VALID,95.5594,VALID,0,VALID,23.1763,VALID,97,VALID,0.600391,
2011-11-26, 02:41:04,VALID,1003.14,VALID,0,VALID,95.5822,VALID,0,VALID,23.1975,VALID,96,VALID,0.562109,
2011-11-26, 02:42:04,VALID,1003.14,VALID,0,VALID,95.5822,VALID,0,VALID,23.1975,VALID,93,VALID,0.272266,
2011-11-26, 02:43:04,VALID,1003.12,VALID,0,VALID,95.5975,VALID,0,VALID,23.1957,VALID,93,VALID,0.297656,
2011-11-26, 02:44:04,VALID,1003.08,VALID,0,VALID,95.6128,VALID,0,VALID,23.2364,VALID,93,VALID,0.10625,
2011-11-26, 02:45:04,VALID,1003.08,VALID,0,VALID,95.6433,VALID,0,VALID,23.2347,VALID,93,VALID,0.232031,
2011-11-26, 02:46:04,VALID,1003.08,VALID,0,VALID,95.628,VALID,0,VALID,23.2347,VALID,92,VALID,0.248047,
2011-11-26, 02:47:04,VALID,1003.08,VALID,0,VALID,95.5899,VALID,0,VALID,23.2347,VALID,92,VALID,0.167969,
2011-11-26, 02:48:04,VALID,1003.05,VALID,0,VALID,95.6128,VALID,0,VALID,23.2364,VALID,87,VALID,0.277734,
2011-11-26, 02:49:04,VALID,1003.06,VALID,0,VALID,95.628,VALID,0,VALID,23.2559,VALID,88,VALID,0.344141,
2011-11-26, 02:50:04,VALID,1003.04,VALID,0,VALID,95.6509,VALID,0,VALID,23.2754,VALID,87,VALID,0.124219,
2011-11-26, 02:51:04,VALID,1003.02,VALID,0,VALID,95.6433,VALID,0,VALID,23.2347,VALID,87,VALID,0.196875,
2011-11-26, 02:52:04,VALID,1002.98,VALID,0,VALID,95.6509,VALID,0,VALID,23.2754,VALID,87,VALID,0.439453,
2011-11-26, 02:53:04,VALID,1002.98,VALID,0,VALID,95.6662,VALID,0,VALID,23.2559,VALID,87,VALID,0.455469,
2011-11-26, 02:54:04,VALID,1002.98,VALID,0,VALID,95.6967,VALID,0,VALID,23.2541,VALID,87,VALID,0.310937,
2011-11-26, 02:55:04,VALID,1003.01,VALID,0,VALID,95.7272,VALID,0,VALID,23.3143,VALID,87,VALID,0.283984,
2011-11-26, 02:56:04,VALID,1003.02,VALID,0,VALID,95.6967,VALID,0,VALID,23.2948,VALID,88,VALID,0.551172,
2011-11-26, 02:57:04,VALID,1003.03,VALID,0,VALID,95.6814,VALID,0,VALID,23.2948,VALID,73,VALID,0.856641,
2011-11-26, 02:58:04,VALID,1003.05,VALID,0,VALID,95.7196,VALID,0,VALID,23.2736,VALID,75,VALID,0.735156,
2011-11-26, 02:59:04,VALID,1003.06,VALID,0,VALID,95.6967,VALID,0,VALID,23.2948,VALID,79,VALID,0.169141,
2011-11-26, 03:00:04,VALID,1003.05,VALID,0,VALID,95.7043,VALID,0,VALID,23.2754,VALID,79,VALID,0.332812,
2011-11-26, 03:01:04,VALID,1003.06,VALID,0,VALID,95.7501,VALID,0.0815089,VALID,23.2913,VALID,31,VALID,0.930078,
2011-11-26, 03:02:04,VALID,1003.04,VALID,0,VALID,95.7653,VALID,0,VALID,23.3125,VALID,22,VALID,0.973828,
2011-11-26, 03:03:04,VALID,1003.03,VALID,0,VALID,95.7653,VALID,0,VALID,23.3107,VALID,26,VALID,0.787891,
2011-11-26, 03:04:04,VALID,1002.99,VALID,0,VALID,95.7501,VALID,0.0815089,VALID,23.3107,VALID,25,VALID,0.635156,
2011-11-26, 03:05:04,VALID,1002.97,VALID,0,VALID,95.7272,VALID,0,VALID,23.3125,VALID,8,VALID,0.671094,
2011-11-26, 03:06:04,VALID,1002.98,VALID,0,VALID,95.689,VALID,0,VALID,23.3125,VALID,20,VALID,0.853906,
2011-11-26, 03:07:04,VALID,1002.92,VALID,0,VALID,95.628,VALID,0.0815089,VALID,23.2913,VALID,18,VALID,0.708594,
2011-11-26, 03:08:04,VALID,1002.91,VALID,0,VALID,95.6204,VALID,0,VALID,23.2931,VALID,12,VALID,0.514063,
2011-11-26, 03:09:04,VALID,1002.89,VALID,0,VALID,95.7043,VALID,0,VALID,23.3125,VALID,14,VALID,0.502344,
2011-11-26, 03:10:04,VALID,1002.88,VALID,0,VALID,95.7196,VALID,0.0815089,VALID,23.3302,VALID,14,VALID,0.34375,
2011-11-26, 03:11:04,VALID,1002.86,VALID,0,VALID,95.7119,VALID,0.0815089,VALID,23.3497,VALID,14,VALID,0.0683594,
2011-11-26, 03:12:04,VALID,1002.87,VALID,0,VALID,95.6967,VALID,0.0815089,VALID,23.3497,VALID,46,VALID,0.504297,
2011-11-26, 03:13:04,VALID,1002.89,VALID,0,VALID,95.6509,VALID,0,VALID,23.3302,VALID,34,VALID,0.301562,
2011-11-26, 03:14:04,VALID,1002.87,VALID,0,VALID,95.6509,VALID,0.0815089,VALID,23.3514,VALID,1,VALID,0.683203,
2011-11-26, 03:15:04,VALID,1002.85,VALID,0,VALID,95.6967,VALID,0,VALID,23.3497,VALID,1,VALID,0.376953,
2011-11-26, 03:16:04,VALID,1002.86,VALID,0,VALID,95.6433,VALID,0,VALID,23.3514,VALID,354,VALID,1.07422,
2011-11-26, 03:17:04,VALID,1002.83,VALID,0.5,VALID,95.5899,VALID,0.0815089,VALID,23.3125,VALID,348,VALID,1.16562,
2011-11-26, 03:18:04,VALID,1002.83,VALID,0,VALID,95.4831,VALID,0.0815089,VALID,23.2931,VALID,337,VALID,0.939062,
2011-11-26, 03:19:04,VALID,1002.84,VALID,0,VALID,95.5594,VALID,0.0815089,VALID,23.2718,VALID,356,VALID,0.889844,
2011-11-26, 03:20:04,VALID,1002.82,VALID,0,VALID,95.5441,VALID,0,VALID,23.2718,VALID,357,VALID,0.241406,
2011-11-26, 03:21:04,VALID,1002.82,VALID,0,VALID,95.5594,VALID,0.0815089,VALID,23.2718,VALID,349,VALID,0.545703,
2011-11-26, 03:22:04,VALID,1002.8,VALID,0,VALID,95.5517,VALID,0.0815089,VALID,23.2524,VALID,354,VALID,0.241406,
2011-11-26, 03:23:04,VALID,1002.76,VALID,0,VALID,95.5212,VALID,0.0815089,VALID,23.2329,VALID,354,VALID,0.594531,
2011-11-26, 03:24:04,VALID,1002.77,VALID,0,VALID,95.4907,VALID,0,VALID,23.2347,VALID,275,VALID,1.05938,
2011-11-26, 03:25:04,VALID,1002.76,VALID,0,VALID,95.4678,VALID,0,VALID,23.2134,VALID,278,VALID,0.19375,
2011-11-26, 03:26:04,VALID,1002.75,VALID,0.5,VALID,95.6128,VALID,0.0815089,VALID,23.2524,VALID,204,VALID,0.375781,
2011-11-26, 03:27:04,VALID,1002.73,VALID,0,VALID,95.5288,VALID,0,VALID,23.2524,VALID,206,VALID,0.578125,
2011-11-26, 03:28:04,VALID,1002.74,VALID,0,VALID,95.5365,VALID,0.0815089,VALID,23.2134,VALID,207,VALID,0.637109,
2011-11-26, 03:29:04,VALID,1002.71,VALID,0,VALID,95.5365,VALID,0.0815089,VALID,23.2329,VALID,207,VALID,0.0578125,
2011-11-26, 03:30:04,VALID,1002.72,VALID,0,VALID,95.6128,VALID,0,VALID,23.2329,VALID,272,VALID,0.0933594,
2011-11-26, 03:31:04,VALID,1002.72,VALID,0,VALID,95.5975,VALID,0.0815089,VALID,23.2718,VALID,278,VALID,0.580859,
2011-11-26, 03:32:04,VALID,1002.76,VALID,0,VALID,95.5212,VALID,0.0815089,VALID,23.2329,VALID,281,VALID,0.210938,
2011-11-26, 03:33:04,VALID,1002.79,VALID,0,VALID,95.5288,VALID,0.0815089,VALID,23.2347,VALID,301,VALID,0.197266,
2011-11-26, 03:34:04,VALID,1002.85,VALID,0,VALID,95.5288,VALID,0.0815089,VALID,23.2134,VALID,356,VALID,0.423047,
2011-11-26, 03:35:04,VALID,1002.87,VALID,0,VALID,95.5441,VALID,0,VALID,23.2347,VALID,356,VALID,0.596094,
2011-11-26, 03:36:04,VALID,1002.87,VALID,0,VALID,95.5288,VALID,0.0815089,VALID,23.194,VALID,347,VALID,0.778125,
2011-11-26, 03:37:04,VALID,1002.87,VALID,0.5,VALID,95.5212,VALID,0.0815089,VALID,23.1745,VALID,327,VALID,0.638672,
2011-11-26, 03:38:04,VALID,1002.87,VALID,0,VALID,95.5212,VALID,0.0815089,VALID,23.1551,VALID,346,VALID,0.588281,
2011-11-26, 03:39:04,VALID,1002.88,VALID,0,VALID,95.3839,VALID,0.0815089,VALID,23.1356,VALID,350,VALID,1.90039,
2011-11-26, 03:40:04,VALID,1002.88,VALID,0,VALID,95.3991,VALID,0.0815089,VALID,23.1374,VALID,7,VALID,1.41055,
2011-11-26, 03:41:04,VALID,1002.91,VALID,0,VALID,95.2161,VALID,0.0815089,VALID,23.0984,VALID,339,VALID,1.8918,
2011-11-26, 03:42:04,VALID,1002.93,VALID,0,VALID,95.2237,VALID,0.0815089,VALID,23.0967,VALID,349,VALID,1.14102,
2011-11-26, 03:43:04,VALID,1002.91,VALID,0,VALID,95.1016,VALID,0.0815089,VALID,23.056,VALID,350,VALID,1.64453,
2011-11-26, 03:44:04,VALID,1002.88,VALID,0,VALID,94.9033,VALID,0.0815089,VALID,23.1002,VALID,352,VALID,2.71328,